#timestamp,LO_Frequency,Hit,StdDev 
1697655615.3,286047033.3,N
1697655635.1,286047034.4,N
1697655636.0,286047034.4,N
1697655655.8,286047032.3,N
1697655675.7,286047034.8,N
1697655695.5,286047032.0,N
1697655715.3,286047032.6,N
1697655735.2,286047032.4,N
1697655755.0,286047030.8,N
1697655755.9,286047030.8,N
1697655775.8,286047012.8,N
1697655795.6,286047034.6,N
1697655815.4,286047485.2,Y
1697655835.3,286047020.3,P
1697655855.1,286046930.7,P
1697655875.8,286047114.7,N
1697655895.7,286047017.7,N
1697655915.5,286047018.8,N
1697655935.4,286047018.7,N
1697655955.2,286047017.7,N
1697655975.0,286047020.3,N
1697655975.9,286047020.3,N
1697655995.8,286047022.0,N
1697656015.6,286047017.5,N
1697656035.4,286046991.2,N
1697656055.3,286046990.6,N
1697656075.1,286046992.7,N
1697656095.9,286046968.4,N
1697656115.7,286046970.2,N
1697656135.5,286046970.7,N
1697656155.4,286046944.6,N
1697656175.2,286046942.1,N
1697656195.0,286047053.2,N
1697656195.9,286047053.2,N
1697656215.8,286046948.2,N
1697656235.6,286046944.5,N
1697656255.4,286046944.0,N
1697656275.3,286046943.9,N
1697656295.1,286046943.9,N
1697656315.9,286047027.4,N
1697656335.7,286047027.2,N
1697656355.5,286047036.7,N
1697656375.4,286047026.4,N
1697656395.2,286047026.6,N
1697656415.0,286047024.6,N
1697656415.9,286047024.6,N
1697656435.8,286046177.1,Y
1697656455.6,286046172.8,P
1697656475.5,286047050.9,N
1697656495.3,286047051.6,N
1697656515.1,286047051.6,N
1697656535.9,286047051.1,N
1697656555.7,286047051.1,N
1697656575.5,286047051.2,N
1697656595.4,286047057.2,N
1697656615.2,286047133.4,N
1697656635.1,286047171.8,N
1697656636.0,286047171.8,N
1697656655.8,286047175.2,N
1697656675.6,286047176.5,N
1697656695.5,286047178.0,N
1697656715.3,286047178.8,N
1697656735.1,286047178.3,N
1697656755.9,286047176.1,N
1697656775.7,286047176.4,N
1697656795.6,286047175.7,N
1697656815.4,286047177.2,N
1697656835.2,286047174.4,N
1697656855.1,286047175.3,N
1697656856.0,286047175.3,N
1697656875.8,286047561.0,N
1697656895.6,286047171.2,N
1697656915.5,286047171.8,N
1697656935.3,286047169.5,N
1697656955.2,286047169.7,N
1697656975.9,286047167.7,N
1697656995.7,286047166.3,N
1697657015.6,286047167.0,N
1697657035.4,286047163.8,N
1697657055.2,286047126.4,N
1697657075.1,286047127.3,N
1697657076.0,286047127.3,N
1697657095.8,286047122.9,N
1697657115.7,286047125.8,N
1697657135.5,286047125.5,N
1697657155.3,286047125.1,N
1697657175.2,286047498.8,Y
1697657195.0,286046780.8,P
1697657195.9,286046780.8,N
1697657215.7,286046978.1,N
1697657235.6,286046979.5,N
1697657255.4,286046982.7,N
1697657275.3,286046984.3,N
1697657295.1,286046181.3,Y
1697657315.8,286046611.4,P
1697657335.7,286046687.7,N
1697657355.5,286046818.3,N
1697657375.4,286047044.2,N
1697657395.2,286047701.6,Y
1697657415.0,286047199.2,P
1697657415.9,286047199.2,N
1697657435.8,286047567.5,P
1697657455.6,286047126.1,N
1697657475.5,286047133.7,N
1697657495.3,286047238.0,N
1697657515.1,286047134.2,N
1697657535.9,286046628.2,N
1697657555.7,286047007.1,N
1697657575.5,286046725.7,N
1697657595.4,286046724.9,N
1697657615.2,286046751.2,N
1697657635.1,286045628.7,Y
1697657636.0,286045628.7,P
1697657655.8,286046273.9,N
1697657675.6,286045682.9,N
1697657695.5,286045683.3,N
1697657715.3,286045687.0,N
1697657735.2,286045687.1,N
1697657755.9,286045684.6,N
1697657775.7,286045687.1,N
1697657795.6,286047032.3,N
1697657815.4,286047007.5,N
1697657835.2,286047007.2,N
1697657855.1,286046467.6,N
1697657856.0,286046467.6,N
1697657875.8,286046466.2,N
1697657895.7,286046464.5,N
1697657915.5,286046463.1,N
1697657935.3,286046460.1,N
1697657955.2,286046455.8,N
1697657975.0,286046454.6,N
1697657975.9,286046454.6,N
1697657995.7,286046188.5,N
1697658015.6,286046451.9,N
1697658035.4,286046448.0,N
1697658055.3,286046446.3,N
1697658075.1,286046989.6,N
1697658076.0,286046989.6,N
1697658095.8,286047138.1,N
1697658115.7,286047169.7,N
1697658135.5,286046437.5,N
1697658155.4,286046432.4,N
1697658175.2,286046433.1,N
1697658195.0,286046314.7,N
1697658195.9,286046314.7,N
1697658215.8,286047007.3,N
1697658235.6,286046423.4,N
1697658255.4,286046419.3,N
1697658275.3,286046461.2,N
1697658295.1,286047207.6,N
1697658315.9,286046412.3,N
1697658335.7,286046147.0,N
1697658355.5,286047137.1,N
1697658375.4,286046305.5,N
1697658395.2,286046226.7,N
1697658415.0,286046223.9,N
1697658415.9,286046223.9,N
1697658435.8,286046303.8,N
1697658455.6,286046306.8,N
1697658475.5,286046266.1,N
1697658495.3,286046304.1,N
1697658515.1,286046306.0,N
1697658535.9,286046217.4,N
1697658555.7,286047139.9,N
1697658575.6,286047142.0,N
1697658595.4,286047141.5,N
1697658615.2,286047138.0,N
1697658635.1,286047140.4,N
1697658636.0,286047140.4,N
1697658655.8,286047137.6,N
1697658675.6,286047137.6,N
1697658695.5,286047138.5,N
1697658715.3,286047137.4,N
1697658735.2,286047135.7,N
1697658755.9,286047136.8,N
1697658775.7,286047137.2,N
1697658795.6,286047134.5,N
1697658815.4,286047135.3,N
1697658835.2,286047132.5,N
1697658855.1,286047134.0,N
1697658856.0,286047134.0,N
1697658875.8,286047135.4,N
1697658895.7,286047132.7,N
1697658915.5,286047133.4,N
1697658935.3,286047133.2,N
1697658955.2,286047133.0,N
1697658975.0,286047134.2,N
1697658975.9,286047134.2,N
1697658995.7,286047135.9,N
1697659015.6,286047138.3,N
1697659035.4,286047138.2,N
1697659055.3,286047135.8,N
1697659075.1,286047136.3,N
1697659076.0,286047136.3,Y
1697659095.8,286047000.8,P
1697659115.7,286047001.1,N
1697659135.5,286046998.3,N
1697659155.3,286046999.1,N
1697659175.2,286046998.0,N
1697659195.0,286046997.4,N
1697659195.9,286046997.4,N
